Wind_Speed
12 10 9 6 4 4 4 3 2 10 10 2 3 2 3 6 4 7 6 4 6 5 4 4 3 4 5 4 1 2 3 3 4 4 11 13 9 5 3 3 5 4 4 9
10 8 7 7 4 3 4 2 2 6 5 2 1 2 5 8 4 7 4 4 5 5 3 3 3 4 4 6 4 2 1 3 4 10 4 6 5 7 9 9 8 4 3 5
9 7 5 5 3 1 1 2 2 2 1 2 4 4 3 4 6 5 4 5 6 5 4 5 3 5 6 8 5 3 1 3 4 4 9 9 14 15 10 5 4 8 9 12
7 5 4 3 2 1 2 0 2 2 2 2 5 3 4 7 3 3 3 4 4 4 3 5 4 5 5 6 3 4 3 2 1 6 11 14 16 15 15 13 13 8 10 16
8 6 5 2 1 3 1 2 2 3 2 2 6 4 2 6 8 3 2 4 2 5 3 2 2 0 1 4 1 2 4 3 3 14 12 14 16 16 17 15 15 15 17 11
7 5 4 4 5 2 3 2 1 2 3 3 4 2 4 6 4 5 7 4 3 4 1 3 6 8 7 8 7 5 5 3 2 8 6 12 11 9 15 13 7 9 10 3
7 5 6 6 10 9 4 3 2 3 1 3 3 10 10 9 5 4 1 3 3 2 3 4 4 6 11 12 15 12 5 6 4 4 7 4 1 16 10 11 8 3 10 5
7 7 6 6 9 12 17 10 3 2 2 2 8 8 6 6 4 3 3 4 2 2 5 4 5 4 4 4 7 10 14 6 3 2 3 11 8 7 5 2 6 7 8 3
8 7 6 6 9 10 14 19 6 3 4 4 4 6 4 3 1 3 3 4 6 6 3 3 2 2 3 4 8 10 5 10 6 2 3 3 3 12 11 3 3 7 5 4
9 8 6 7 9 12 13 12 11 5 4 4 3 4 4 3 3 3 3 4 6 4 2 2 1 3 4 4 6 3 3 4 7 5 4 3 12 18 11 3 3 7 8 11
10 9 8 8 7 8 9 10 16 4 3 3 5 4 4 4 4 3 3 4 5 4 4 2 2 1 3 3 3 7 2 3 3 4 1 2 18 6 6 4 7 9 11 10
12 10 9 7 6 6 7 6 11 9 4 3 4 2 2 5 5 4 3 5 2 3 3 1 1 2 3 4 3 6 4 5 2 5 3 4 4 6 8 8 9 9 10 8
13 11 8 6 7 7 10 10 12 5 3 4 5 2 5 6 5 4 4 2 2 1 4 3 2 1 1 2 3 3 7 9 2 2 4 8 9 7 10 9 10 11 10 9
14 12 10 10 8 8 10 9 12 5 3 3 1 4 2 7 9 7 6 6 3 3 2 1 2 1 2 1 2 2 3 7 6 3 6 6 9 9 7 9 10 12 12 11
15 13 12 10 9 9 7 10 10 10 4 3 3 11 1 10 12 10 7 6 3 2 2 2 2 2 0 1 2 2 4 3 3 1 6 4 4 6 8 8 10 8 11 12
16 15 12 9 9 6 3 3 8 6 4 3 1 5 3 10 11 9 8 5 3 2 2 2 3 4 2 2 2 1 2 4 5 2 5 8 7 8 8 9 9 9 9 10
17 15 12 11 10 10 7 3 1 2 3 3 3 3 3 6 5 2 2 4 2 2 1 1 2 3 3 2 2 5 3 3 3 2 5 4 1 4 5 11 15 15 14 14
17 15 13 12 12 8 6 6 8 5 7 2 2 3 3 2 1 1 1 2 2 2 2 2 2 3 2 2 7 7 6 5 2 4 3 5 5 6 8 14 13 9 9 11
18 16 14 10 3 3 3 5 2 6 4 2 1 2 3 2 1 2 2 2 1 1 2 3 2 1 1 4 9 7 2 2 5 4 4 11 11 10 10 9 8 9 8 9
19 9 5 2 1 10 8 3 2 2 1 0 2 0 2 3 1 2 2 0 2 1 4 1 2 2 3 6 7 6 4 4 2 5 7 9 8 9 9 9 9 9 9 10
4 3 2 4 14 3 1 2 1 1 2 3 3 5 2 1 3 3 3 2 2 2 2 3 2 3 3 9 10 9 8 10 9 10 8 10 10 9 9 8 10 9 9 9
7 9 7 7 2 1 3 3 1 3 3 2 3 4 4 2 2 2 1 2 2 3 2 2 1 1 9 9 10 8 10 12 13 14 14 15 15 13 13 11 11 11 12 11
8 3 3 3 2 3 4 4 3 0 2 2 0 2 3 2 3 1 1 2 3 2 1 2 1 6 7 8 8 9 12 13 13 12 14 15 14 14 15 14 14 14 13 12
2 3 4 3 2 3 4 3 3 3 2 2 3 1 2 1 3 1 1 3 2 2 3 2 2 7 9 8 6 8 5 8 10 11 15 16 17 17 15 14 12 12 11 8
0 2 3 4 3 1 2 0 2 1 1 2 3 3 2 0 1 2 2 2 3 2 1 2 4 7 8 7 6 6 6 7 9 16 15 16 16 15 13 10 9 9 9 8
1 2 1 1 2 1 1 1 1 1 1 2 2 2 2 3 3 2 3 2 1 2 2 4 7 7 4 6 5 10 16 16 16 17 15 15 14 14 12 10 8 8 9 9
3 1 1 1 0 1 2 2 0 0 2 1 1 3 6 3 0 1 0 2 3 4 5 4 6 8 7 9 12 14 16 16 16 15 13 13 12 12 10 7 8 8 7 6
Wind_Direction
144 148 147 157 161 156 188 148 99 162 175 138 227 227 19 106 96 64 63 57 61 66 63 72 94 85 49 13 87 56 346 273 287 271 288 277 277 346 32 279 327 299 260 269
147 140 143 149 149 159 154 122 162 180 182 169 183 52 79 58 43 37 47 71 49 45 69 82 62 61 65 47 63 138 350 349 334 324 338 18 62 358 341 306 252 226 259 286
143 141 144 135 163 128 113 141 91 326 171 239 138 114 80 104 32 44 34 78 56 60 55 51 1 33 15 22 4 155 109 194 193 244 278 290 298 303 300 299 287 319 286 301
149 150 152 166 175 273 201 113 230 193 212 341 85 101 125 120 99 60 36 31 78 77 44 353 30 23 350 358 38 40 86 241 181 282 280 282 276 281 276 260 265 258 302 305
149 154 150 162 132 326 179 107 107 348 87 88 80 35 63 156 107 102 62 109 59 60 86 89 271 350 228 231 319 87 359 213 348 297 290 273 270 281 258 259 262 265 279 261
147 132 116 87 32 75 79 342 329 91 352 83 87 189 112 105 97 61 63 60 92 46 146 227 223 213 203 220 231 206 184 177 123 270 292 311 279 246 229 242 287 274 246 121
148 118 106 90 63 64 97 32 62 75 57 96 152 103 96 98 82 106 21 65 92 159 275 287 283 259 251 244 243 216 192 162 180 286 311 255 32 26 47 57 36 13 79 89
142 131 116 97 68 64 61 41 66 92 75 339 101 101 102 73 67 139 95 31 138 253 41 6 335 335 345 272 227 228 203 169 228 226 227 297 305 36 25 318 58 15 56 63
146 133 115 105 76 80 73 40 42 88 113 332 300 103 98 116 77 48 53 1 12 63 77 57 15 306 282 312 323 23 173 191 173 192 271 272 337 334 336 190 111 12 49 2
152 139 125 110 89 71 75 45 30 83 102 333 47 94 125 120 81 93 28 351 11 55 63 62 267 280 326 337 321 331 80 126 206 215 237 281 355 328 315 157 80 58 67 40
151 145 119 107 102 73 95 58 40 85 102 329 32 39 65 47 67 114 271 44 359 30 52 55 276 22 303 295 246 327 43 271 187 207 178 270 0 357 41 37 75 79 77 84
154 140 123 111 107 95 94 62 53 51 89 201 333 28 116 113 151 133 21 157 133 184 81 8 6 340 330 304 358 347 40 350 25 28 72 35 15 39 39 36 76 87 93 84
151 140 134 120 117 91 101 66 32 59 67 360 35 328 156 166 159 141 115 7 126 64 165 168 225 278 21 319 38 316 357 10 41 145 50 52 38 60 47 56 77 77 82 92
156 151 139 125 123 118 82 64 38 64 108 101 306 47 108 180 164 130 107 132 81 99 108 131 163 197 198 276 81 58 341 323 345 87 135 123 57 33 64 72 68 76 74 83
156 149 140 127 118 118 101 71 53 47 92 164 280 315 278 164 169 179 165 136 98 82 29 63 245 254 92 44 72 30 346 349 347 18 336 95 64 61 46 70 86 89 90 87
153 142 137 124 120 131 126 41 42 53 42 84 46 310 310 174 170 168 171 142 101 102 130 240 272 258 125 90 108 171 41 50 27 103 63 95 91 87 76 82 79 75 82 91
152 143 130 121 111 76 66 116 30 94 40 61 10 346 294 181 159 66 74 117 124 123 185 244 234 285 143 120 143 150 88 46 27 41 131 84 341 116 115 102 89 85 89 91
148 137 125 120 107 95 63 57 57 54 87 61 78 278 4 46 88 83 61 95 76 317 206 297 236 299 153 107 128 132 135 106 71 67 66 110 120 135 114 109 104 93 90 90
144 133 119 99 71 82 117 111 47 36 85 119 110 143 233 358 76 108 25 112 76 224 201 238 150 327 85 175 150 137 119 195 168 142 118 107 99 88 116 108 99 100 97 92
137 121 66 62 111 128 121 55 47 36 98 142 226 204 275 110 7 312 80 51 215 194 230 113 107 90 75 77 77 104 126 63 231 141 128 117 108 102 94 93 92 97 101 96
119 95 90 122 143 119 110 117 148 166 225 201 227 197 190 246 116 206 203 187 243 241 269 148 170 159 123 103 88 72 79 74 62 79 70 106 119 120 113 100 94 94 95 93
140 122 105 140 179 156 168 193 235 189 231 202 175 208 181 257 125 103 323 240 161 253 144 120 164 103 112 109 106 90 85 88 80 83 89 95 100 107 108 107 103 104 111 117
108 102 131 159 152 195 160 195 262 211 241 221 165 69 150 15 54 61 142 256 230 344 80 164 133 128 122 120 111 98 97 97 97 91 94 98 98 111 118 115 120 119 113 115
93 150 153 202 209 246 190 186 190 241 122 89 102 43 120 215 55 238 267 257 274 280 184 200 168 147 135 124 118 120 108 106 107 107 111 110 110 109 115 119 129 128 128 129
300 224 231 207 224 178 172 134 161 9 41 50 46 30 93 355 112 189 254 291 268 4 96 190 140 128 125 122 122 123 125 122 121 128 123 124 125 122 121 127 132 132 133 136
268 264 126 358 136 121 74 335 132 347 76 55 62 146 152 218 186 181 224 273 263 231 159 125 128 130 127 135 134 141 143 141 141 142 141 139 140 142 138 140 143 143 150 155
280 325 13 259 168 155 166 148 215 143 87 185 163 206 213 169 65 229 108 225 223 147 128 127 135 149 152 146 142 145 148 150 149 149 156 156 149 147 146 162 178 180 188 192
Height
735 736 737 739 740 742 744 743 748 743 746 752 749 742 726 726 729 728 730 732 734 739 739 742 744 747 750 748 749 758 757 756 758 747 739 735 736 742 742 743 735 730 725 710
736 737 738 740 740 741 741 742 743 743 744 753 749 732 733 734 731 734 735 738 740 740 745 751 746 750 750 749 751 758 756 768 773 752 741 742 744 745 749 753 746 737 726 715
736 737 739 738 741 740 740 743 750 744 744 738 739 740 737 741 740 742 741 745 745 748 750 750 755 755 752 756 755 753 756 767 767 778 766 758 757 748 744 751 749 738 727 718
736 738 739 741 740 739 741 742 743 736 749 743 738 737 736 741 747 745 746 752 752 754 760 760 762 762 762 760 757 759 764 771 767 766 762 756 752 749 741 738 738 743 721 721
738 741 740 740 739 738 738 741 739 738 738 736 740 743 742 739 744 748 753 755 752 757 762 765 770 770 768 768 760 764 771 774 771 765 758 751 748 740 733 725 720 716 720 712
739 739 739 739 737 736 737 738 737 737 742 742 746 747 742 746 748 751 755 755 757 760 765 763 762 763 762 762 764 769 773 783 781 766 752 751 745 725 718 713 711 713 714 717
738 738 738 739 738 737 738 738 738 743 752 746 745 740 744 749 752 757 756 756 759 760 759 757 754 754 752 752 752 755 771 774 775 766 758 763 723 725 714 725 729 728 727 729
738 739 740 740 740 738 738 738 740 745 758 746 742 745 749 752 754 756 756 758 758 758 759 765 764 758 747 740 742 742 748 758 769 770 757 733 717 732 741 743 739 743 738 736
739 740 741 742 741 741 740 741 742 744 754 758 747 750 752 763 764 765 761 758 757 758 776 782 773 773 756 744 741 738 738 747 764 756 752 757 742 743 741 742 735 752 749 751
739 741 743 743 743 743 743 744 744 745 758 755 751 758 761 760 767 771 767 764 765 765 791 799 783 775 758 754 758 741 749 754 753 756 752 742 754 747 738 721 752 758 760 757
740 743 744 744 745 746 746 748 747 746 757 758 755 755 759 763 768 780 773 777 777 781 786 786 798 795 775 764 759 748 744 742 742 742 744 744 759 746 744 755 760 762 763 768
742 744 746 747 748 749 749 750 749 749 752 759 757 757 758 760 762 769 772 776 778 784 792 790 789 784 777 764 750 752 752 759 752 756 765 770 772 769 768 766 764 768 768 772
743 745 748 749 750 751 751 752 752 752 758 760 759 758 759 761 762 763 773 775 772 776 779 790 790 788 775 769 762 761 760 764 759 763 774 773 772 773 774 775 775 775 777 780
744 747 750 751 752 754 754 755 756 756 760 771 763 760 760 761 762 764 766 769 771 774 777 787 792 787 772 773 768 774 774 769 770 773 776 778 779 780 779 780 780 779 779 780
746 749 751 753 755 756 757 758 759 760 763 772 770 761 759 761 762 765 767 769 773 778 782 790 788 777 775 775 776 778 779 780 777 784 780 781 784 785 783 782 784 786 785 787
747 750 753 755 756 758 758 763 763 763 763 770 778 765 760 761 763 765 767 769 774 778 783 786 779 769 772 780 786 784 781 782 782 787 785 785 787 788 788 789 791 793 793 794
749 752 755 757 759 759 761 768 767 765 766 774 781 772 761 760 763 766 768 769 773 776 781 782 778 771 766 778 776 784 784 784 784 783 785 787 787 789 790 792 793 794 795 795
752 754 757 759 762 764 765 767 767 767 768 773 784 777 770 761 768 770 770 774 775 777 779 779 774 768 766 776 781 784 786 788 788 787 785 785 788 790 793 796 798 800 801 801
753 757 760 762 764 766 768 769 770 770 774 773 778 784 789 764 769 771 773 773 787 776 781 774 769 775 774 777 779 783 786 788 789 789 789 791 795 794 797 800 802 803 805 806
755 759 762 766 766 768 770 772 773 774 774 775 772 772 775 768 779 781 780 780 779 779 770 766 774 777 780 780 781 784 787 789 789 789 792 796 799 801 803 805 807 808 809 811
757 761 764 765 768 770 771 773 775 776 772 774 771 770 770 764 778 779 770 769 767 761 762 761 769 772 779 785 788 790 792 793 794 794 796 797 800 804 807 810 811 813 813 814
757 759 763 767 769 769 770 773 774 772 765 766 767 764 764 762 761 772 767 763 765 756 759 764 778 783 785 788 792 795 797 798 800 801 801 803 805 808 809 812 814 814 815 817
758 761 764 765 768 766 773 784 772 778 764 760 762 759 762 763 764 773 766 758 762 758 768 766 782 784 789 792 795 799 801 802 804 806 806 807 809 810 811 813 815 816 817 818
760 759 764 764 775 776 772 768 770 762 762 760 763 768 767 770 771 776 763 766 758 763 765 768 784 784 790 794 797 800 804 805 806 807 808 810 811 813 814 816 817 818 818 820
760 758 766 770 761 756 757 756 755 758 757 762 765 767 767 771 769 766 766 761 757 755 763 782 785 789 794 798 801 803 806 807 808 809 811 813 814 815 817 818 819 820 821 822
761 757 755 755 754 759 759 758 757 758 759 762 762 761 762 761 768 760 761 754 754 778 783 782 787 792 797 799 801 804 806 808 810 812 814 815 817 818 819 821 822 822 823 823
758 758 760 758 755 757 758 759 759 759 761 762 758 758 758 758 765 760 765 760 784 778 781 783 787 792 797 799 802 804 807 809 812 814 815 817 818 820 821 822 822 823 824 824